sat.trackr.live / text

‹ back to catalog

ONEWEB-0120

NORAD 47266 · 2020-100J

PAYLOAD ACTIVE UNKNOWN

§ Identity

Operator
Country
UK
Launch date
2020-12-18
Launch site
VOSTO
Launch vehicle
Mass (kg)
RCS (m²)

Purposes: comms

External: N2YO · Heavens-Above · Gunter

§ Orbital elements

Epoch: 2026-05-25T03:05:55.961088Z

Period
109.72 min
Inclination
87.8950°
Eccentricity
0.0001626
Mean motion
13.12441352 rev/d
Perigee alt
1,212.5 km
Apogee alt
1,215.0 km
Semi-major
7,591.9 km
B*
-3.2336e-6
RAAN
355.2580°
Arg perigee
89.8721°
Mean anomaly
270.2594°
Rev number
26,170

§ Raw data

ONEWEB-01201 47266U 20100J   26145.12911992  .00000012  00000+0 -32336-5 0  99952 47266  87.8950 355.2580 0001626  89.8721 270.2594 13.12441352261703

JSON: /api/v1/satellites/47266 · /tle

For live sub-satellite position, see the globe view (requires WebGL).

§ Visibility from observer

Set your observer location to see the next 7 days of passes ≥ 10°. The values pass through the URL so the page stays shareable.

No JS? Fill the form by hand. The geolocation button needs JavaScript.